Time,TemperatureF,DewpointF,PressureIn,WindDirection,WindDirectionDegrees,WindSpeedMPH,WindSpeedGustMPH,Humidity,HourlyPrecipIn,Conditions,Clouds,dailyrainin,SolarRadiationWatts/m^2,SoftwareType,DateUTC
2013-08-21 00:01:00,96.0,59.0,-100.00,SW,215,9.0,22.0,29,0.00,,,-99.99,0.000000,,2013-08-21 07:01:00,
2013-08-21 00:11:00,96.0,59.0,-100.00,SW,215,9.0,22.0,29,0.00,,,-99.99,0.000000,,2013-08-21 07:11:00,
2013-08-21 00:21:00,96.0,59.0,-100.00,SW,215,9.0,22.0,29,0.00,,,-99.99,0.000000,,2013-08-21 07:21:00,
2013-08-21 00:53:00,95.0,56.0,-100.00,SW,226,8.0,17.0,27,0.00,,,0.00,0.000000,,2013-08-21 07:53:00,
2013-08-21 01:03:00,95.0,56.0,-100.00,SW,226,8.0,17.0,27,0.00,,,0.00,0.000000,,2013-08-21 08:03:00,
2013-08-21 01:12:00,95.0,56.0,-100.00,SW,226,8.0,17.0,27,0.00,,,0.00,0.000000,,2013-08-21 08:12:00,
2013-08-21 01:22:00,95.0,56.0,-100.00,SW,226,8.0,17.0,27,0.00,,,0.00,0.000000,,2013-08-21 08:22:00,
2013-08-21 01:52:00,93.0,57.0,-100.00,SW,218,9.0,16.0,30,0.00,,,0.00,0.000000,,2013-08-21 08:52:00,
2013-08-21 02:01:00,93.0,57.0,-100.00,SW,218,9.0,16.0,30,0.00,,,0.00,0.000000,,2013-08-21 09:01:00,
2013-08-21 02:11:00,93.0,57.0,-100.00,SW,218,9.0,16.0,30,0.00,,,0.00,0.000000,,2013-08-21 09:11:00,
2013-08-21 02:22:00,93.0,57.0,-100.00,SW,218,9.0,16.0,30,0.00,,,0.00,0.000000,,2013-08-21 09:22:00,
2013-08-21 02:53:00,92.0,55.0,-100.00,SSW,206,8.0,14.0,29,0.00,,,0.00,0.000000,,2013-08-21 09:53:00,
2013-08-21 03:03:00,92.0,55.0,-100.00,SSW,206,8.0,14.0,29,0.00,,,0.00,0.000000,,2013-08-21 10:03:00,
2013-08-21 03:12:00,92.0,55.0,-100.00,SSW,206,8.0,14.0,29,0.00,,,0.00,0.000000,,2013-08-21 10:12:00,
2013-08-21 03:23:00,92.0,55.0,-100.00,SSW,206,8.0,14.0,29,0.00,,,0.00,0.000000,,2013-08-21 10:23:00,
2013-08-21 03:52:00,89.0,58.0,-100.00,South,184,6.0,13.0,35,0.00,,,0.00,0.000000,,2013-08-21 10:52:00,
2013-08-21 04:03:00,89.0,58.0,-100.00,South,184,6.0,13.0,35,0.00,,,0.00,0.000000,,2013-08-21 11:03:00,
2013-08-21 04:11:00,89.0,58.0,-100.00,South,184,6.0,13.0,35,0.00,,,0.00,0.000000,,2013-08-21 11:11:00,
2013-08-21 04:22:00,89.0,58.0,-100.00,South,184,6.0,13.0,35,0.00,,,0.00,0.000000,,2013-08-21 11:22:00,
2013-08-21 04:52:00,88.0,61.0,-100.00,SW,236,4.0,9.0,41,0.00,,,-99.99,0.000000,,2013-08-21 11:52:00,
2013-08-21 05:01:00,88.0,61.0,-100.00,SW,236,4.0,9.0,41,0.00,,,-99.99,0.000000,,2013-08-21 12:01:00,
2013-08-21 05:12:00,88.0,61.0,-100.00,SW,236,4.0,9.0,41,0.00,,,-99.99,0.000000,,2013-08-21 12:12:00,
2013-08-21 05:22:00,88.0,61.0,-100.00,SW,236,4.0,9.0,41,0.00,,,-99.99,0.000000,,2013-08-21 12:22:00,
2013-08-21 05:52:00,87.0,60.0,-100.00,SW,225,0.0,6.0,41,0.00,,,0.00,0.000000,,2013-08-21 12:52:00,
2013-08-21 06:02:00,87.0,60.0,-100.00,SW,225,0.0,6.0,41,0.00,,,0.00,0.000000,,2013-08-21 13:02:00,
2013-08-21 06:11:00,87.0,60.0,-100.00,SW,225,0.0,6.0,41,0.00,,,0.00,0.000000,,2013-08-21 13:11:00,
2013-08-21 06:21:00,87.0,60.0,-100.00,SW,225,0.0,6.0,41,0.00,,,0.00,0.000000,,2013-08-21 13:21:00,
2013-08-21 06:52:00,86.0,63.0,-100.00,ESE,115,0.0,0.0,46,0.00,,,0.00,1.000000,,2013-08-21 13:52:00,
2013-08-21 07:02:00,86.0,63.0,-100.00,ESE,115,0.0,0.0,46,0.00,,,0.00,1.000000,,2013-08-21 14:02:00,
2013-08-21 07:11:00,86.0,63.0,-100.00,ESE,115,0.0,0.0,46,0.00,,,0.00,1.000000,,2013-08-21 14:11:00,
2013-08-21 07:21:00,86.0,63.0,-100.00,ESE,115,0.0,0.0,46,0.00,,,0.00,1.000000,,2013-08-21 14:21:00,
2013-08-21 07:52:00,88.0,60.0,-100.00,NNE,18,1.0,3.0,39,0.00,,,0.00,77.000000,,2013-08-21 14:52:00,
2013-08-21 08:01:00,88.0,60.0,-100.00,NNE,18,1.0,3.0,39,0.00,,,0.00,77.000000,,2013-08-21 15:01:00,
2013-08-21 08:11:00,88.0,60.0,-100.00,NNE,18,1.0,3.0,39,0.00,,,0.00,77.000000,,2013-08-21 15:11:00,
2013-08-21 08:22:00,88.0,60.0,-100.00,NNE,18,1.0,3.0,39,0.00,,,0.00,77.000000,,2013-08-21 15:22:00,
2013-08-21 08:54:00,97.0,63.0,-100.00,NNW,334,0.0,3.0,33,0.00,,,0.00,344.000000,,2013-08-21 15:54:00,
2013-08-21 09:04:00,97.0,63.0,-100.00,NNW,334,0.0,3.0,33,0.00,,,0.00,344.000000,,2013-08-21 16:04:00,
2013-08-21 09:13:00,97.0,63.0,-100.00,NNW,334,0.0,3.0,33,0.00,,,0.00,344.000000,,2013-08-21 16:13:00,
2013-08-21 09:24:00,97.0,63.0,-100.00,NNW,334,0.0,3.0,33,0.00,,,0.00,344.000000,,2013-08-21 16:24:00,
2013-08-21 09:53:00,100.0,58.0,-100.00,NNE,15,0.0,7.0,25,0.00,,,0.00,566.000000,,2013-08-21 16:53:00,
2013-08-21 10:03:00,100.0,58.0,-100.00,NNE,15,0.0,7.0,25,0.00,,,0.00,566.000000,,2013-08-21 17:03:00,
2013-08-21 10:13:00,100.0,58.0,-100.00,NNE,15,0.0,7.0,25,0.00,,,0.00,566.000000,,2013-08-21 17:13:00,
2013-08-21 10:23:00,100.0,58.0,-100.00,NNE,15,0.0,7.0,25,0.00,,,0.00,566.000000,,2013-08-21 17:23:00,
2013-08-21 10:53:00,106.0,58.0,-100.00,WNW,301,1.0,5.0,21,0.00,,,0.00,815.000000,,2013-08-21 17:53:00,
2013-08-21 11:02:00,106.0,58.0,-100.00,WNW,301,1.0,5.0,21,0.00,,,0.00,815.000000,,2013-08-21 18:02:00,
2013-08-21 11:12:00,106.0,58.0,-100.00,WNW,301,1.0,5.0,21,0.00,,,0.00,815.000000,,2013-08-21 18:12:00,
2013-08-21 11:22:00,106.0,58.0,-100.00,WNW,301,1.0,5.0,21,0.00,,,0.00,815.000000,,2013-08-21 18:22:00,
2013-08-21 11:52:00,107.0,57.0,-100.00,SSW,206,4.0,10.0,20,0.00,,,0.00,1008.000000,,2013-08-21 18:52:00,
2013-08-21 12:01:00,107.0,57.0,-100.00,SSW,206,4.0,10.0,20,0.00,,,0.00,1008.000000,,2013-08-21 19:01:00,
2013-08-21 12:11:00,107.0,57.0,-100.00,SSW,206,4.0,10.0,20,0.00,,,0.00,1008.000000,,2013-08-21 19:11:00,
2013-08-21 12:22:00,107.0,57.0,-100.00,SSW,206,4.0,10.0,20,0.00,,,0.00,1008.000000,,2013-08-21 19:22:00,
2013-08-21 12:52:00,110.0,55.0,-100.00,South,189,5.0,12.0,17,0.00,,,0.00,1106.000000,,2013-08-21 19:52:00,
2013-08-21 13:02:00,110.0,55.0,-100.00,South,189,5.0,12.0,17,0.00,,,0.00,1106.000000,,2013-08-21 20:02:00,
2013-08-21 13:11:00,110.0,55.0,-100.00,South,189,5.0,12.0,17,0.00,,,0.00,1106.000000,,2013-08-21 20:11:00,
2013-08-21 13:22:00,110.0,55.0,-100.00,South,189,5.0,12.0,17,0.00,,,0.00,1106.000000,,2013-08-21 20:22:00,
2013-08-21 13:52:00,110.0,54.0,-100.00,SSE,164,9.0,18.0,16,0.00,,,0.00,1129.000000,,2013-08-21 20:52:00,
2013-08-21 14:02:00,110.0,54.0,-100.00,SSE,164,9.0,18.0,16,0.00,,,0.00,1129.000000,,2013-08-21 21:02:00,
2013-08-21 14:12:00,110.0,54.0,-100.00,SSE,164,9.0,18.0,16,0.00,,,0.00,1129.000000,,2013-08-21 21:12:00,
2013-08-21 14:21:00,110.0,54.0,-100.00,SSE,164,9.0,18.0,16,0.00,,,0.00,1129.000000,,2013-08-21 21:21:00,
2013-08-21 14:54:00,109.0,51.0,-100.00,South,184,9.0,16.0,15,0.00,,,0.00,1076.000000,,2013-08-21 21:54:00,
2013-08-21 15:04:00,109.0,51.0,-100.00,South,184,9.0,16.0,15,0.00,,,0.00,1076.000000,,2013-08-21 22:04:00,
2013-08-21 15:14:00,109.0,51.0,-100.00,South,184,9.0,16.0,15,0.00,,,0.00,1076.000000,,2013-08-21 22:14:00,
2013-08-21 15:24:00,109.0,51.0,-100.00,South,184,9.0,16.0,15,0.00,,,0.00,1076.000000,,2013-08-21 22:24:00,
2013-08-21 15:53:00,113.0,50.0,-100.00,SSW,206,5.0,16.0,13,0.00,,,-99.99,949.000000,,2013-08-21 22:53:00,
2013-08-21 16:03:00,113.0,50.0,-100.00,SSW,206,5.0,16.0,13,0.00,,,-99.99,949.000000,,2013-08-21 23:03:00,
2013-08-21 16:12:00,113.0,50.0,-100.00,SSW,206,5.0,16.0,13,0.00,,,-99.99,949.000000,,2013-08-21 23:12:00,
2013-08-21 16:22:00,113.0,50.0,-100.00,SSW,206,5.0,16.0,13,0.00,,,-99.99,949.000000,,2013-08-21 23:22:00,
2013-08-21 16:53:00,109.0,47.0,-100.00,ESE,116,6.0,19.0,13,0.00,,,0.00,762.000000,,2013-08-21 23:53:00,
2013-08-21 17:02:00,109.0,47.0,-100.00,ESE,116,6.0,19.0,13,0.00,,,0.00,762.000000,,2013-08-22 00:02:00,
2013-08-21 17:12:00,109.0,47.0,-100.00,ESE,116,6.0,19.0,13,0.00,,,0.00,762.000000,,2013-08-22 00:12:00,
2013-08-21 17:21:00,109.0,47.0,-100.00,ESE,116,6.0,19.0,13,0.00,,,0.00,762.000000,,2013-08-22 00:21:00,
2013-08-21 17:52:00,107.0,48.0,-100.00,ESE,120,8.0,16.0,14,0.00,,,0.00,428.000000,,2013-08-22 00:52:00,
2013-08-21 18:02:00,107.0,48.0,-100.00,ESE,120,8.0,16.0,14,0.00,,,0.00,428.000000,,2013-08-22 01:02:00,
2013-08-21 18:11:00,107.0,48.0,-100.00,ESE,120,8.0,16.0,14,0.00,,,0.00,428.000000,,2013-08-22 01:11:00,
2013-08-21 18:22:00,107.0,48.0,-100.00,ESE,120,8.0,16.0,14,0.00,,,0.00,428.000000,,2013-08-22 01:22:00,
2013-08-21 18:52:00,105.0,50.0,-100.00,SSE,158,1.0,13.0,16,0.00,,,0.00,130.000000,,2013-08-22 01:52:00,
2013-08-21 19:03:00,105.0,50.0,-100.00,SSE,158,1.0,13.0,16,0.00,,,0.00,130.000000,,2013-08-22 02:03:00,
2013-08-21 19:12:00,105.0,50.0,-100.00,SSE,158,1.0,13.0,16,0.00,,,0.00,130.000000,,2013-08-22 02:12:00,
2013-08-21 19:22:00,105.0,50.0,-100.00,SSE,158,1.0,13.0,16,0.00,,,0.00,130.000000,,2013-08-22 02:22:00,
2013-08-21 20:12:00,101.0,60.0,-100.00,SW,224,12.0,21.0,26,0.00,,,0.00,23.000000,,2013-08-22 03:12:00,
2013-08-21 20:22:00,101.0,60.0,-100.00,SW,224,12.0,21.0,26,0.00,,,0.00,23.000000,,2013-08-22 03:22:00,
2013-08-21 20:54:00,96.0,59.0,-100.00,South,190,6.0,20.0,30,0.00,,,0.00,0.000000,,2013-08-22 03:54:00,
2013-08-21 21:04:00,96.0,59.0,-100.00,South,190,6.0,20.0,30,0.00,,,0.00,0.000000,,2013-08-22 04:04:00,
2013-08-21 21:14:00,96.0,59.0,-100.00,South,190,6.0,20.0,30,0.00,,,0.00,0.000000,,2013-08-22 04:14:00,
2013-08-21 21:23:00,96.0,59.0,-100.00,South,190,6.0,20.0,30,0.00,,,0.00,0.000000,,2013-08-22 04:23:00,
2013-08-21 21:54:00,97.0,66.0,-100.00,SSW,205,3.0,11.0,36,0.00,,,0.00,0.000000,,2013-08-22 04:54:00,
2013-08-21 22:03:00,97.0,66.0,-100.00,SSW,205,3.0,11.0,36,0.00,,,0.00,0.000000,,2013-08-22 05:03:00,
2013-08-21 22:12:00,97.0,66.0,-100.00,SSW,205,3.0,11.0,36,0.00,,,0.00,0.000000,,2013-08-22 05:12:00,
2013-08-21 22:22:00,97.0,66.0,-100.00,SSW,205,3.0,11.0,36,0.00,,,0.00,0.000000,,2013-08-22 05:22:00,
2013-08-21 22:52:00,96.0,65.0,-100.00,South,187,2.0,7.0,37,0.00,,,0.00,0.000000,,2013-08-22 05:52:00,
2013-08-21 23:02:00,96.0,65.0,-100.00,South,187,2.0,7.0,37,0.00,,,0.00,0.000000,,2013-08-22 06:02:00,
2013-08-21 23:12:00,96.0,65.0,-100.00,South,187,2.0,7.0,37,0.00,,,0.00,0.000000,,2013-08-22 06:12:00,
2013-08-21 23:22:00,96.0,65.0,-100.00,South,187,2.0,7.0,37,0.00,,,0.00,0.000000,,2013-08-22 06:22:00,
2013-08-21 23:52:00,94.0,67.0,-100.00,South,174,0.0,4.0,41,0.00,,,0.00,0.000000,,2013-08-22 06:52:00,